User: anonymous   Login
Location: Unspecified
(0.0000°N, 0.0000°E)
Time: 05:36:45
(UTC+00:00)
Language:

Kosmos-2004 - Orbit

View from above orbital plane
View from above orbital plane
View from above satellite
View from above satellite

Ground track
Ground track

The orbit data is extracted from the following two-line orbital elements,

1 19826U 89017A   18321.63958412 +.00000052 +00000-0 +40594-4 0  9997
2 19826 082.9507 162.3342 0030748 022.7752 040.9996 13.72264295488757
Epoch (UTC): 17 November 2018 15:21:00
Eccentricity: 0.0030748
inclination: 82.9507°
perigee height: 969 km
apogee height: 1014 km
right ascension of ascending node: 162.3342°
argument of perigee: 22.7752°
revolutions per day: 13.72264295
mean anomaly at epoch: 40.9996°
orbit number at epoch: 48875

The dashed part of the orbit path shows where the satellite is in the earth's shadow,  

DLR